Time,TemperatureF,DewpointF,PressureIn,WindDirection,WindDirectionDegrees,WindSpeedMPH,WindSpeedGustMPH,Humidity,HourlyPrecipIn,Conditions,Clouds,dailyrainin,SoftwareType,DateUTC
2013-03-27 00:00:00,39.4,30.1,29.85,SW,225,0.0,-999.0,69,-99.99,,,0.00,Acu-Link.com,2013-03-27 04:00:00,
2013-03-27 00:16:00,39.0,29.7,29.85,SW,225,0.0,-999.0,69,-99.99,,,0.00,Acu-Link.com,2013-03-27 04:16:00,
2013-03-27 00:46:00,38.5,29.9,29.86,SW,225,0.0,-999.0,71,-99.99,,,0.00,Acu-Link.com,2013-03-27 04:46:00,
2013-03-27 01:02:00,37.8,29.3,29.85,SW,225,0.0,-999.0,71,-99.99,,,0.00,Acu-Link.com,2013-03-27 05:02:00,
2013-03-27 01:17:00,37.0,28.8,29.85,SW,225,0.0,-999.0,72,-99.99,,,0.00,Acu-Link.com,2013-03-27 05:17:00,
2013-03-27 01:32:00,36.5,28.7,29.85,SW,225,0.0,-999.0,73,-99.99,,,0.00,Acu-Link.com,2013-03-27 05:32:00,
2013-03-27 01:48:00,36.1,27.6,29.85,SW,225,1.7,-999.0,71,-99.99,,,0.00,Acu-Link.com,2013-03-27 05:48:00,
2013-03-27 02:03:00,36.5,27.7,29.85,SW,225,0.0,-999.0,70,-99.99,,,0.00,Acu-Link.com,2013-03-27 06:03:00,
2013-03-27 02:18:00,36.5,27.3,29.85,SW,225,0.0,-999.0,69,-99.99,,,0.00,Acu-Link.com,2013-03-27 06:18:00,
2013-03-27 02:33:00,35.8,27.0,29.85,SW,225,0.0,-999.0,70,-99.99,,,0.00,Acu-Link.com,2013-03-27 06:33:00,
2013-03-27 02:49:00,35.8,27.3,29.85,WSW,247,0.0,-999.0,71,-99.99,,,0.00,Acu-Link.com,2013-03-27 06:49:00,
2013-03-27 03:04:00,35.8,27.7,29.84,WSW,247,0.0,-999.0,72,-99.99,,,0.00,Acu-Link.com,2013-03-27 07:04:00,
2013-03-27 03:19:00,35.8,27.7,29.84,WSW,247,0.0,-999.0,72,-99.99,,,0.00,Acu-Link.com,2013-03-27 07:19:00,
2013-03-27 03:35:00,36.3,28.2,29.84,WSW,247,1.7,-999.0,72,-99.99,,,0.00,Acu-Link.com,2013-03-27 07:35:00,
2013-03-27 03:50:00,36.7,28.2,29.85,WSW,247,0.0,-999.0,71,-99.99,,,0.00,Acu-Link.com,2013-03-27 07:50:00,
2013-03-27 04:05:00,37.0,28.5,29.84,West,270,1.7,-999.0,71,-99.99,,,0.00,Acu-Link.com,2013-03-27 08:05:00,
2013-03-27 04:21:00,37.0,28.5,29.84,West,270,0.0,-999.0,71,-99.99,,,0.00,Acu-Link.com,2013-03-27 08:21:00,
2013-03-27 04:51:00,35.2,27.4,29.83,West,270,0.0,-999.0,73,-99.99,,,0.00,Acu-Link.com,2013-03-27 08:51:00,
2013-03-27 05:07:00,35.4,27.6,29.84,WNW,292,3.7,-999.0,73,-99.99,,,0.00,Acu-Link.com,2013-03-27 09:07:00,
2013-03-27 05:22:00,35.1,27.3,29.85,NNW,337,0.0,-999.0,73,-99.99,,,0.00,Acu-Link.com,2013-03-27 09:22:00,
2013-03-27 05:37:00,34.3,26.6,29.84,NNW,337,1.7,-999.0,73,-99.99,,,0.00,Acu-Link.com,2013-03-27 09:37:00,
2013-03-27 05:53:00,33.4,26.3,29.85,NNW,337,1.1,-999.0,75,-99.99,,,0.00,Acu-Link.com,2013-03-27 09:53:00,
2013-03-27 06:08:00,33.3,26.2,29.86,NNW,337,0.0,-999.0,75,-99.99,,,0.00,Acu-Link.com,2013-03-27 10:08:00,
2013-03-27 06:23:00,32.4,25.4,29.86,NNW,337,2.7,-999.0,75,-99.99,,,0.00,Acu-Link.com,2013-03-27 10:23:00,
2013-03-27 06:38:00,32.4,25.1,29.86,SSE,157,0.0,-999.0,74,-99.99,,,0.00,Acu-Link.com,2013-03-27 10:38:00,
2013-03-27 06:54:00,32.0,25.0,29.87,SSE,157,0.0,-999.0,75,-99.99,,,0.00,Acu-Link.com,2013-03-27 10:54:00,
2013-03-27 07:09:00,31.5,24.8,29.88,SSE,157,0.0,-999.0,76,-99.99,,,0.00,Acu-Link.com,2013-03-27 11:09:00,
2013-03-27 07:24:00,32.4,24.4,29.87,NNW,337,0.0,-999.0,72,-99.99,,,0.00,Acu-Link.com,2013-03-27 11:24:00,
2013-03-27 07:40:00,33.4,25.0,29.88,NNW,337,1.1,-999.0,71,-99.99,,,0.00,Acu-Link.com,2013-03-27 11:40:00,
2013-03-27 07:55:00,33.4,25.0,29.89,NNW,337,0.0,-999.0,71,-99.99,,,0.00,Acu-Link.com,2013-03-27 11:55:00,
2013-03-27 08:10:00,34.5,25.0,29.89,NNW,337,1.7,-999.0,68,-99.99,,,0.00,Acu-Link.com,2013-03-27 12:10:00,
2013-03-27 08:26:00,36.3,25.3,29.89,NNW,337,3.2,-999.0,64,-99.99,,,0.00,Acu-Link.com,2013-03-27 12:26:00,
2013-03-27 08:56:00,39.4,26.3,29.90,NW,315,2.7,-999.0,59,-99.99,,,0.00,Acu-Link.com,2013-03-27 12:56:00,
2013-03-27 09:12:00,40.5,26.1,29.90,NW,315,4.2,-999.0,56,-99.99,,,0.00,Acu-Link.com,2013-03-27 13:12:00,
2013-03-27 09:42:00,41.0,26.1,29.90,NW,315,3.7,-999.0,55,-99.99,,,0.00,Acu-Link.com,2013-03-27 13:42:00,
2013-03-27 09:58:00,41.9,26.0,29.89,West,270,4.2,-999.0,53,-99.99,,,0.00,Acu-Link.com,2013-03-27 13:58:00,
2013-03-27 10:13:00,43.0,27.1,29.90,WNW,292,5.8,-999.0,53,-99.99,,,0.00,Acu-Link.com,2013-03-27 14:13:00,
2013-03-27 10:28:00,42.8,26.4,29.89,NW,315,3.7,-999.0,52,-99.99,,,0.00,Acu-Link.com,2013-03-27 14:28:00,
2013-03-27 10:43:00,42.6,26.7,29.90,West,270,4.7,-999.0,53,-99.99,,,0.00,Acu-Link.com,2013-03-27 14:43:00,
2013-03-27 10:59:00,43.7,27.2,29.90,North,0,3.7,-999.0,52,-99.99,,,0.00,Acu-Link.com,2013-03-27 14:59:00,
2013-03-27 11:14:00,43.5,27.5,29.90,West,270,4.2,-999.0,53,-99.99,,,0.00,Acu-Link.com,2013-03-27 15:14:00,
2013-03-27 11:29:00,43.9,28.3,29.90,West,270,4.7,-999.0,54,-99.99,,,0.00,Acu-Link.com,2013-03-27 15:29:00,
2013-03-27 11:44:00,44.2,27.7,29.90,West,270,4.2,-999.0,52,-99.99,,,0.00,Acu-Link.com,2013-03-27 15:44:00,
2013-03-27 11:59:00,44.4,27.4,29.90,NNE,22,4.2,-999.0,51,-99.99,,,0.00,Acu-Link.com,2013-03-27 15:59:00,
2013-03-27 12:14:00,44.8,27.3,29.90,WNW,292,4.2,-999.0,50,-99.99,,,0.00,Acu-Link.com,2013-03-27 16:14:00,
2013-03-27 12:29:00,45.1,27.1,29.89,North,0,5.3,-999.0,49,-99.99,,,0.00,Acu-Link.com,2013-03-27 16:29:00,
2013-03-27 12:45:00,46.4,27.8,29.89,West,270,5.8,-999.0,48,-99.99,,,0.00,Acu-Link.com,2013-03-27 16:45:00,
2013-03-27 13:00:00,47.8,28.0,29.89,West,270,6.3,-999.0,46,-99.99,,,0.00,Acu-Link.com,2013-03-27 17:00:00,
2013-03-27 13:15:00,46.8,27.6,29.89,NW,315,5.3,-999.0,47,-99.99,,,0.00,Acu-Link.com,2013-03-27 17:15:00,
2013-03-27 13:30:00,46.4,26.2,29.88,West,270,3.2,-999.0,45,-99.99,,,0.00,Acu-Link.com,2013-03-27 17:30:00,
2013-03-27 14:01:00,48.4,27.5,29.88,SW,225,6.3,-999.0,44,-99.99,,,0.00,Acu-Link.com,2013-03-27 18:01:00,
2013-03-27 14:16:00,46.4,27.3,29.88,WNW,292,4.2,-999.0,47,-99.99,,,0.00,Acu-Link.com,2013-03-27 18:16:00,
2013-03-27 14:31:00,48.6,26.6,29.86,West,270,7.3,-999.0,42,-99.99,,,0.00,Acu-Link.com,2013-03-27 18:31:00,
2013-03-27 14:47:00,47.1,25.2,29.87,West,270,3.7,-999.0,42,-99.99,,,0.00,Acu-Link.com,2013-03-27 18:47:00,
2013-03-27 15:33:00,50.0,28.4,29.86,NW,315,3.2,-999.0,43,-99.99,,,0.00,Acu-Link.com,2013-03-27 19:33:00,
2013-03-27 15:48:00,47.1,28.9,29.87,NNW,337,3.2,-999.0,49,-99.99,,,0.00,Acu-Link.com,2013-03-27 19:48:00,
2013-03-27 16:03:00,47.3,26.5,29.86,West,270,3.2,-999.0,44,-99.99,,,0.00,Acu-Link.com,2013-03-27 20:03:00,
2013-03-27 16:19:00,47.8,25.8,29.86,West,270,1.1,-999.0,42,-99.99,,,0.00,Acu-Link.com,2013-03-27 20:19:00,
2013-03-27 16:34:00,49.5,25.0,29.86,WNW,292,6.3,-999.0,38,-99.99,,,0.00,Acu-Link.com,2013-03-27 20:34:00,
2013-03-27 16:49:00,47.7,26.9,29.87,West,270,4.7,-999.0,44,-99.99,,,0.00,Acu-Link.com,2013-03-27 20:49:00,
2013-03-27 17:04:00,46.8,28.2,29.88,NW,315,6.3,-999.0,48,-99.99,,,0.00,Acu-Link.com,2013-03-27 21:04:00,
2013-03-27 17:19:00,47.3,27.0,29.87,NNW,337,5.8,-999.0,45,-99.99,,,0.00,Acu-Link.com,2013-03-27 21:19:00,
2013-03-27 17:34:00,45.7,26.6,29.88,West,270,2.7,-999.0,47,-99.99,,,0.00,Acu-Link.com,2013-03-27 21:34:00,
2013-03-27 17:50:00,45.0,27.0,29.89,WSW,247,4.2,-999.0,49,-99.99,,,0.00,Acu-Link.com,2013-03-27 21:50:00,
2013-03-27 18:05:00,44.2,28.2,29.89,West,270,4.2,-999.0,53,-99.99,,,0.00,Acu-Link.com,2013-03-27 22:05:00,
2013-03-27 18:20:00,45.0,28.4,29.89,WSW,247,2.2,-999.0,52,-99.99,,,0.00,Acu-Link.com,2013-03-27 22:20:00,
2013-03-27 18:35:00,44.2,27.7,29.90,NE,45,2.7,-999.0,52,-99.99,,,0.00,Acu-Link.com,2013-03-27 22:35:00,
2013-03-27 18:50:00,44.1,26.2,29.91,WNW,292,6.3,-999.0,49,-99.99,,,0.00,Acu-Link.com,2013-03-27 22:50:00,
2013-03-27 19:36:00,41.2,27.6,29.93,WNW,292,2.7,-999.0,58,-99.99,,,0.00,Acu-Link.com,2013-03-27 23:36:00,
2013-03-27 19:52:00,40.6,28.2,29.94,West,270,1.7,-999.0,61,-99.99,,,0.00,Acu-Link.com,2013-03-27 23:52:00,
2013-03-27 20:07:00,39.9,28.3,29.94,West,270,0.0,-999.0,63,-99.99,,,0.00,Acu-Link.com,2013-03-28 00:07:00,
2013-03-27 20:22:00,39.9,28.3,29.94,West,270,2.2,-999.0,63,-99.99,,,0.00,Acu-Link.com,2013-03-28 00:22:00,
2013-03-27 20:37:00,39.4,28.3,29.94,NNW,337,2.7,-999.0,64,-99.99,,,0.00,Acu-Link.com,2013-03-28 00:37:00,
2013-03-27 20:52:00,39.0,28.6,29.95,NW,315,2.2,-999.0,66,-99.99,,,0.00,Acu-Link.com,2013-03-28 00:52:00,
2013-03-27 21:08:00,38.3,28.7,29.95,NW,315,0.0,-999.0,68,-99.99,,,0.00,Acu-Link.com,2013-03-28 01:08:00,
2013-03-27 21:23:00,37.6,28.4,29.95,WNW,292,1.7,-999.0,69,-99.99,,,0.00,Acu-Link.com,2013-03-28 01:23:00,
2013-03-27 21:38:00,37.6,28.7,29.96,NNW,337,1.7,-999.0,70,-99.99,,,0.00,Acu-Link.com,2013-03-28 01:38:00,
2013-03-27 21:54:00,36.9,28.0,29.96,NW,315,1.1,-999.0,70,-99.99,,,0.00,Acu-Link.com,2013-03-28 01:54:00,
2013-03-27 22:09:00,36.1,27.3,29.96,NW,315,0.0,-999.0,70,-99.99,,,0.00,Acu-Link.com,2013-03-28 02:09:00,
2013-03-27 22:24:00,35.2,27.1,29.96,NW,315,0.0,-999.0,72,-99.99,,,0.00,Acu-Link.com,2013-03-28 02:24:00,
2013-03-27 22:40:00,35.1,27.0,29.97,NW,315,0.0,-999.0,72,-99.99,,,0.00,Acu-Link.com,2013-03-28 02:40:00,
2013-03-27 22:55:00,34.3,26.2,29.97,NW,315,0.0,-999.0,72,-99.99,,,0.00,Acu-Link.com,2013-03-28 02:55:00,
2013-03-27 23:10:00,33.6,25.6,29.97,NW,315,0.0,-999.0,72,-99.99,,,0.00,Acu-Link.com,2013-03-28 03:10:00,
2013-03-27 23:25:00,33.3,25.6,29.96,NNE,22,1.7,-999.0,73,-99.99,,,0.00,Acu-Link.com,2013-03-28 03:25:00,
2013-03-27 23:56:00,32.9,25.5,29.97,NNE,22,0.0,-999.0,74,-99.99,,,0.00,Acu-Link.com,2013-03-28 03:56:00,